Regional Weather Roundup
Issued by NWS

Home | Current Version | Previous Version | Text Only | Print | Product List | Glossary Off
Versions: 1 2 3 4 5 6 7 8 9 10 11 12 13 14 15 16 17 18 19 20 21 22 23 24 25 26 27

000
ASUS45 KBOU 240307
RWRCO

WEATHER ROUNDUP FOR COLORADO
NATIONAL WEATHER SERVICE DENVER/BOULDER CO
900 PM MDT SAT SEP 23 2017

NOTE: "FAIR" INDICATES FEW OR NO CLOUDS BELOW 12000 FEET WITH NO
SIGNIFICANT WEATHER AND/OR OBSTRUCTIONS TO VISIBILITY.

COZ001>005-013-030-031-240400-
...NORTHWEST COLORADO...

CITY           SKY/WX    TMP DP  RH WIND       PRES   REMARKS
CRAIG          LGT RAIN  48  39  71 NW3       29.92R
HAYDEN         CLOUDY    48  40  73 S3        29.94R
MEEKER         FAIR      43  40  89 SE8       29.91F
RABBIT EARS PA FOG       32  32 100 S7        30.06S VSB 1/4 WCI  26
STEAMBOAT SPGS CLOUDY    42  40  93 CALM      29.94R
WALDEN         FAIR      39  36  87 CALM      30.02R
$$

COZ006>008-011-240400-
...WEST CENTRAL VALLEYS...

CITY           SKY/WX    TMP DP  RH WIND       PRES   REMARKS
GRAND JUNCTION FAIR      49  47  93 W9        29.82R
MONTROSE       FAIR      48  44  86 SE8       29.87R
EAGLE          FAIR      45  42  89 E6        29.95R
RIFLE          FAIR      48  42  80 S3        29.89R
DELTA          NOT AVBL
NUCLA          FAIR      48  41  76 E10       29.86S
$$

COZ017>023-064>068-240400-
...SOUTHWEST COLORADO...

CITY           SKY/WX    TMP DP  RH WIND       PRES   REMARKS
DURANGO        MOCLDY    46  45  96 NE7       29.92S
CORTEZ         FAIR      53  44  71 SW7       29.84R
PAGOSA SPRINGS FAIR      43  42  98 CALM      29.99F
TELLURIDE      MOCLDY    42  33  70 E3        30.01S
WOLF CREEK PAS SNOW      30  30 100 S14G20    30.18R VSB 1/4 WCI  20
$$

COZ009-010-012-014-032>034-037-058>063-240400-
...CENTRAL COLORADO...

CITY           SKY/WX    TMP DP  RH WIND       PRES   REMARKS
ASPEN          FAIR      41  38  89 SW7       29.95S
BUENA VISTA    FAIR      45  41  88 CALM      29.97R
COPPER MTN     MOCLDY    37  30  75 MISG      30.13R
BERTHOUD PASS  SNOW      28  19  69 W17       30.16R VSB 1/4 WCI  16
COTTONWOOD PAS FAIR      45  39  81 S12       30.04R
GUNNISON       FAIR      44  38  79 N6        29.97R
KREMMLING      FAIR      45  37  76 CALM      29.99S
LEADVILLE      FAIR      35  33  92 E3        30.02F
MONARCH PASS   FAIR      32  28  86 SW33      30.22S WCI  17
SALIDA         FAIR      49  45  84 SE7       30.02F
SUNLIGHT       FAIR      32  30  93 S3        30.09S FOG
WILKERSON PASS FOG       36  36 100 SW7       30.17R VSB 1/2
$$

COZ069>075-240400-
...SAN LUIS VALLEY/SANGRE DE CRISTO MOUNTAINS...

CITY           SKY/WX    TMP DP  RH WIND       PRES   REMARKS
ALAMOSA        FAIR      47  46  97 NE3       29.97S
DEL NORTE      FAIR      43  38  82 SW7       30.00R
LA VETA PASS   CLOUDY    43  41  93 S8G25     30.20R
SAGUACHE       MOCLDY    46  43  87 NW3       30.00R
$$

COZ035-036-038>040-240400-
...NORTHERN COLORADO FRONT RANGE...

CITY           SKY/WX    TMP DP  RH WIND       PRES   REMARKS
DENVER INTL AP LGT RAIN  44  42  93 NE13      29.98R
DMNS CITY PARK   N/A     45  45 100 N3        30.00R
AURORA         LGT RAIN  43  43 100 NE15      29.99F
FRONT RANGE AP RAIN      46  45  93 N10G22    30.00R
ERIE MUNI ARPT LGT RAIN  46  44  93 NE6       30.05S
BOULDER MUN AP LGT RAIN  45  45 100 NW3       30.00R
CENTENNIAL     LGT RAIN  44  43  96 N7        30.00S
BROOMFIELD     LGT RAIN  46  45  93 N7        30.00F
FORT COLLINS   CLOUDY    46  43  89 CALM      30.00R
LONGMONT       LGT RAIN  48  46  90 CALM      30.01S
$$

COZ041-046-047-076>085-087-088-240400-
...PIKES PEAK/PALMER DIVIDE AND SOUTHERN FOOTHILLS...

CITY           SKY/WX    TMP DP  RH WIND       PRES   REMARKS
COLO. SPRINGS  RAIN      47  44  90 N17       29.98R
A. F. ACADEMY  LGT RAIN  44  43  95 N13       30.00R
SCHRIEVER AFB  HVY RAIN  45  42  91 MISG      29.97R
CHEYENNE MTN   SHOWER    43  42  93 N16G24    29.92R
ELLICOTT       RAIN     N/A N/A N/A N15G30    29.94S
FALCON         LGT RAIN  43  41  93 N17G23    30.01R
FORT CARSON    RAIN      47  44  87 N17G24    29.94R
LIMON            N/A    N/A N/A N/A MISG      29.96F
MONUMENT HILL  RAIN      39  37  93 N7        30.04R
CANON CITY     CLOUDY    55  52  88 E5        29.87S
WALSENBURG     CLOUDY    55  54  94 S5        29.91R
TRINIDAD       RAIN      54 N/A N/A SE3       29.90F
$$

COZ042>045-048>051-090-091-240400-
...NORTHEAST COLORADO...

CITY           SKY/WX    TMP DP  RH WIND       PRES   REMARKS
GREELEY ARPT   LGT RAIN  45  44  97 E8        29.98F
AKRON          LGT RAIN  44  43  96 N18       29.98R FOG
BURLINGTON     CLOUDY    58  57  97 E9        29.89R
WRAY           LGT RAIN N/A N/A N/A NE10      29.91R
YUMA           DRIZZLE   48  48 100 NW16      29.94R
STERLING       NOT AVBL
HOLYOKE        LGT RAIN  54  52  94 N16       29.93R
FORT MORGAN    LGT RAIN  45  43  93 N8        30.00R
$$

COZ086-089-092>099-240400-
...SOUTHEAST COLORADO...

CITY           SKY/WX    TMP DP  RH WIND       PRES   REMARKS
PUEBLO         RAIN      52  47  83 N35G43    29.85R
LA JUNTA       CLOUDY    65  58  78 S13       29.83S
LAMAR          FAIR      62  58  86 E5        29.82R
SPRINGFIELD      N/A     59  59 100 S14       29.85F
$$




USA.gov is the U.S. government's official web portal to all federal, state and local government web resources and services.